[[{"header":{"parameterUnit":"m.s-1","parameterCategory":1,"la1":30.2991,"la2":30.254,"lo1":-89.0895,"lo2":-89.0444,"dy":0.0017,"dx":0.0017,"nx":28,"ny":28,"refTime":"2024-07-27T09:00:00:Z","depth":0,"parameterNumber":2,"parameterNumberName":"U-component_of_WINDS"},"data":[0,0,0,0,0,0,0,0,0,0,0,0,0,0,0,0,0,0,0,0,0,0,0,0,0,0,0,0,0,0,0,0,0,0,0,0,0,0,0,0,0,0,0,0,0,0,0,0,0,0,0,0,0,0,0,0,0,0,2.3835,2.3836,0,2.3908,2.3909,2.391,2.3844,2.3841,2.3838,2.3836,2.3911,2.3916,2.392,0,0,0,0,0,0,0,0,0,0,0,0,0,2.364,2.3644,2.3835,2.3836,2.3837,2.3908,2.3909,2.391,2.3844,2.3841,2.3838,2.3835,2.391,2.3915,2.3921,0,0,0,0,0,0,0,0,0,0,0,0,0,2.372,2.3645,2.3835,2.3813,2.3811,2.3908,2.3909,2.391,2.3845,2.3841,2.3837,2.3833,2.3908,2.3915,2.3921,2.4044,0,0,2.3942,2.3945,0,0,0,0,0,0,0,0,2.3716,2.3727,2.3815,2.3814,2.3813,2.3863,2.3868,2.3955,2.3846,2.3832,2.3836,2.3831,2.3898,2.3906,2.3928,2.4047,2.4051,2.3943,2.3947,2.395,2.3952,0,0,0,0,0,0,0,2.371,2.3724,2.3864,2.3816,2.3815,2.3799,2.3806,2.3884,2.3887,2.3833,2.3828,2.3838,2.3897,2.3922,2.393,2.4052,2.3942,2.3948,2.3953,2.3955,2.4274,2.4278,0,0,0,0,0,0,2.3707,2.372,2.3862,2.3866,2.3753,2.3806,2.3814,2.3851,2.3886,2.3887,2.3841,2.3835,2.3912,2.3922,2.3932,2.4076,2.395,2.3956,2.396,2.427,2.4275,2.428,0,0,0,0,0,0,2.3703,2.372,2.3859,2.3792,2.3808,2.3814,2.3856,2.3854,2.3879,2.3892,2.3892,2.3866,2.391,2.3922,2.4016,2.4078,2.3959,2.3965,2.4265,2.4271,2.4278,2.4367,0,0,0,0,0,0,2.3698,2.3719,2.3765,2.3793,2.3812,2.3942,2.386,2.3859,2.3891,2.3883,2.3915,2.3917,2.3907,2.4007,2.4023,2.4085,2.397,2.4259,2.4268,2.4275,2.4359,2.4376,2.4391,0,0,0,0,0,2.3691,2.3788,2.3768,2.3785,2.387,2.3945,2.3956,2.3943,2.3896,2.3942,2.3951,2.3916,2.4069,2.4017,2.4035,2.41,2.4255,2.4265,2.4275,2.4351,2.4373,2.4391,0,0,0,0,0,0,2.3767,2.3791,2.3769,2.3878,2.391,2.3934,2.3992,2.3966,2.4012,2.4002,2.3984,2.3992,2.4091,2.4105,2.4046,2.422,2.4155,2.4169,2.4207,2.4227,2.4243,2.4236,2.3976,0,0,0,0,0,2.3797,2.3856,2.3874,2.3968,2.3985,2.3986,2.4019,2.4006,2.4038,2.4051,2.4067,2.41,2.4155,2.4192,2.4244,2.4361,2.4367,2.4415,2.4431,2.4445,2.4456,2.4518,2.454,2.4313,2.4312,2.4312,0,0,2.3858,2.3879,2.3917,2.3984,2.4007,2.4069,2.3998,2.4066,2.4112,2.4062,2.4151,2.4164,2.42,2.4305,2.4353,2.432,2.4521,2.4457,2.4468,2.4472,2.4531,2.4552,2.4571,2.4319,2.4318,2.4317,0,0,2.4001,2.4023,2.4104,2.4129,2.4165,2.4165,2.4184,2.4213,2.4219,2.4308,2.4272,2.4326,2.4423,2.4449,2.4476,2.463,2.4599,2.4648,2.4731,2.4792,2.481,2.4826,2.488,2.4899,2.466,2.466,2.4661,0,2.4073,2.4164,2.4148,2.4219,2.425,2.4208,2.4289,2.4314,2.4366,2.4388,2.4351,2.4471,2.4493,2.4603,2.4641,2.4664,2.4686,2.4643,2.4809,2.4824,2.4839,2.489,2.491,2.4666,2.4665,2.4665,2.4664,0,2.4249,2.4313,2.4374,2.4424,2.4462,2.4538,2.4534,2.4575,2.4559,2.4564,2.4655,2.4679,2.4735,2.4761,2.4747,2.487,2.4849,2.4811,2.4744,2.4866,2.4914,2.4933,2.4674,2.4672,2.467,2.4669,0,0,2.444,2.4482,2.4504,2.4526,2.4564,2.4613,2.4688,2.4742,2.4776,2.4814,2.4875,2.4958,2.4924,2.4954,2.4942,2.4996,2.5116,2.4951,2.4952,2.498,2.5252,2.5279,2.5302,2.5096,2.51,2.5103,2.5248,0,2.4582,2.4711,2.47,2.4821,2.488,2.4842,2.4907,2.4937,2.4944,2.4995,2.5002,2.5061,2.5011,2.5029,2.5081,2.509,2.517,2.508,2.5153,2.5155,2.5142,2.5327,2.5355,2.5491,2.5267,2.527,2.5273,0,2.4765,2.4809,2.4936,2.4965,2.4989,2.5047,2.5096,2.5146,2.518,2.5181,2.5215,2.5195,2.527,2.5204,2.5307,2.5246,2.5276,2.5285,2.529,2.5295,2.522,2.5334,2.5534,2.5554,2.5302,2.53,2.5298,0,2.4889,2.498,2.5068,2.5088,2.5124,2.5166,2.5183,2.5213,2.5247,2.529,2.5312,2.5364,2.5392,2.5433,2.5428,2.538,2.5533,2.5466,2.5535,2.5535,2.5567,2.5564,2.5772,2.559,2.5589,2.5589,2.5589,0,2.5048,2.5127,2.5124,2.5177,2.5265,2.5253,2.534,2.5352,2.538,2.5435,2.5407,2.546,2.545,2.5504,2.55,2.5586,2.5599,2.5602,2.56,2.5603,2.5603,2.5621,2.561,2.5594,2.5593,2.5592,2.5591,0,2.52,2.5201,2.5294,2.5321,2.533,2.5393,2.5416,2.5467,2.5472,2.5543,2.5559,2.5567,2.5628,2.5627,2.5697,2.5695,2.5799,2.5787,2.5787,2.5784,2.5853,2.5845,2.6077,2.6106,2.5907,2.5909,2.5911,0,2.53,2.5359,2.5393,2.5428,2.5448,2.5505,2.5539,2.5531,2.5567,2.5611,2.5657,2.5716,2.5761,2.5861,2.5873,2.5927,2.5915,2.5992,2.5922,2.5924,2.5914,2.5909,2.5915,2.6005,2.6007,2.6009,2.6011,0,2.5476,2.5474,2.5524,2.5575,2.5617,2.5656,2.5693,2.5724,2.5719,2.5762,2.5824,2.586,2.5932,2.599,2.6042,2.6059,2.6035,2.6033,2.6051,2.6054,2.6051,2.6052,2.5823,2.6027,2.6025,2.6024,2.6023,2.6023,2.5604,2.5655,2.5687,2.5743,2.577,2.5805,2.5854,2.5866,2.5917,2.5974,2.5967,2.6036,2.6069,2.6136,2.6159,2.6213,2.6186,2.6213,2.622,2.6226,2.6233,2.6045,2.6223,2.6223,2.6222,2.6222,2.6222,0,2.5777,2.5796,2.5849,2.5901,2.5946,2.5919,2.5959,2.5998,2.6059,2.6092,2.6139,2.621,2.6267,2.6285,2.634,2.638,2.637,2.6394,2.639,2.6394,2.6255,2.6232,2.6401,2.6401,2.6401,2.6401,2.6401,2.6401,2.5872,2.5957,2.5959,2.6057,2.6076,2.6143,2.6168,2.62,2.6227,2.6308,2.6355,2.6366,2.6393,2.645,2.6501,2.6505,2.6526,2.6555,2.6554,2.6422,2.6404,2.6387,2.6366,2.656,2.656,2.6688,2.669,2.6691]},{"header":{"parameterUnit":"m.s-1","parameterCategory":1,"la1":30.2991,"la2":30.254,"lo1":-89.0895,"lo2":-89.0444,"dy":0.0017,"dx":0.0017,"nx":28,"ny":28,"refTime":"2024-07-27T09:00:00:Z","depth":0,"parameterNumber":3,"parameterNumberName":"V-component_of_WINDS"},"data":[0,0,0,0,0,0,0,0,0,0,0,0,0,0,0,0,0,0,0,0,0,0,0,0,0,0,0,0,0,0,0,0,0,0,0,0,0,0,0,0,0,0,0,0,0,0,0,0,0,0,0,0,0,0,0,0,0,0,2.4449,2.445,0,2.4479,2.4479,2.4479,2.4424,2.4423,2.4421,2.4419,2.445,2.4452,2.4455,0,0,0,0,0,0,0,0,0,0,0,0,0,2.4345,2.4347,2.4449,2.445,2.445,2.4479,2.4479,2.448,2.4425,2.4423,2.442,2.4418,2.4449,2.4452,2.4455,0,0,0,0,0,0,0,0,0,0,0,0,0,2.4384,2.4348,2.4449,2.4426,2.4424,2.4479,2.4479,2.448,2.4425,2.4422,2.442,2.4417,2.4448,2.4452,2.4455,2.4534,0,0,2.4467,2.4468,0,0,0,0,0,0,0,0,2.4382,2.4388,2.4429,2.4428,2.4426,2.4445,2.4454,2.4498,2.4426,2.4425,2.4419,2.4416,2.445,2.4454,2.4465,2.4535,2.4536,2.4467,2.4469,2.4471,2.4472,0,0,0,0,0,0,0,2.4379,2.4387,2.4461,2.443,2.4428,2.4414,2.4417,2.4462,2.4453,2.4425,2.4421,2.4425,2.4449,2.4462,2.4466,2.4537,2.4467,2.447,2.4473,2.4474,2.4672,2.4675,0,0,0,0,0,0,2.438,2.4385,2.446,2.4462,2.4397,2.4418,2.4421,2.4442,2.4452,2.4451,2.4427,2.4422,2.4457,2.4461,2.4467,2.4558,2.4471,2.4475,2.4477,2.4669,2.4672,2.4676,0,0,0,0,0,0,2.4378,2.4387,2.4459,2.4422,2.443,2.4423,2.4447,2.4444,2.4456,2.4454,2.4452,2.4442,2.4455,2.4461,2.4517,2.4559,2.4476,2.448,2.4665,2.467,2.4674,2.4743,0,0,0,0,0,0,2.4375,2.4386,2.4416,2.4423,2.4432,2.4509,2.4449,2.4446,2.4463,2.4457,2.4467,2.4467,2.4453,2.4512,2.4521,2.4563,2.4483,2.4661,2.4667,2.4673,2.4737,2.475,2.476,0,0,0,0,0,2.4371,2.4435,2.4418,2.4427,2.4469,2.4512,2.4517,2.45,2.4467,2.4496,2.4495,2.4466,2.4553,2.4518,2.4528,2.4571,2.4659,2.4666,2.4672,2.4732,2.4747,2.476,0,0,0,0,0,0,2.4433,2.4435,2.4417,2.4484,2.4498,2.4502,2.4539,2.4517,2.454,2.4533,2.4512,2.4514,2.4575,2.4579,2.454,2.4647,2.46,2.4609,2.4643,2.4657,2.4668,2.4666,2.4486,0,0,0,0,0,2.4454,2.4488,2.4488,2.4548,2.4556,2.4547,2.4564,2.455,2.4564,2.4569,2.4572,2.4586,2.4616,2.4637,2.4665,2.4738,2.4739,2.4772,2.4784,2.4793,2.4801,2.484,2.4855,2.4698,2.4698,2.4697,0,0,2.4499,2.4504,2.4527,2.4561,2.457,2.4605,2.4552,2.4592,2.4618,2.4575,2.4628,2.4631,2.4645,2.471,2.4739,2.4715,2.4845,2.4802,2.4809,2.4812,2.4848,2.4863,2.4876,2.4702,2.4701,2.4701,0,0,2.4598,2.4606,2.4656,2.4666,2.4681,2.4674,2.4686,2.4694,2.4694,2.4746,2.4715,2.4746,2.4799,2.481,2.4823,2.4927,2.4901,2.4937,2.4996,2.5034,2.5047,2.5057,2.5094,2.5108,2.4945,2.4945,2.4945,0,2.4652,2.4704,2.4685,2.4727,2.4742,2.4705,2.4756,2.4767,2.479,2.4801,2.4775,2.484,2.4847,2.4914,2.4939,2.4951,2.4964,2.4935,2.5046,2.5057,2.5067,2.5102,2.5116,2.4949,2.4949,2.4948,2.4948,0,2.4769,2.4806,2.4845,2.4867,2.4887,2.4934,2.4921,2.4944,2.4928,2.4924,2.4979,2.4986,2.5014,2.5029,2.5015,2.5094,2.5079,2.505,2.5002,2.5086,2.5119,2.5132,2.4955,2.4953,2.4952,2.4951,0,0,2.4907,2.4919,2.4933,2.4943,2.4956,2.4985,2.5029,2.5057,2.5077,2.5094,2.513,2.5176,2.5149,2.5164,2.515,2.5183,2.5265,2.515,2.515,2.5171,2.5353,2.5374,2.539,2.5248,2.525,2.5252,2.5351,0,2.5005,2.5082,2.5066,2.5141,2.5175,2.514,2.5179,2.5191,2.5189,2.5217,2.5215,2.5247,2.5209,2.5218,2.5249,2.5248,2.5301,2.5241,2.5282,2.5283,2.5279,2.5407,2.543,2.5523,2.5364,2.5366,2.5367,0,2.513,2.5151,2.523,2.5237,2.5251,2.5286,2.531,2.5338,2.5351,2.5347,2.5364,2.5343,2.5388,2.534,2.54,2.536,2.5376,2.5378,2.5381,2.5384,2.533,2.5413,2.5552,2.5566,2.5387,2.5386,2.5384,0,2.5222,2.5271,2.5324,2.5334,2.5344,2.5369,2.5375,2.5386,2.5403,2.5425,2.5436,2.5462,2.5477,2.5497,2.5485,2.5451,2.5548,2.5499,2.5545,2.5546,2.5567,2.5566,2.571,2.5578,2.5578,2.5578,2.5577,0,2.5333,2.5382,2.5366,2.5398,2.5452,2.5434,2.5488,2.5489,2.5499,2.5532,2.5504,2.5535,2.5516,2.5546,2.5537,2.5588,2.5595,2.5593,2.559,2.5595,2.5595,2.5605,2.5598,2.5581,2.5581,2.558,2.5579,0,2.5445,2.5436,2.5492,2.5497,2.5499,2.5539,2.5543,2.5574,2.557,2.5611,2.562,2.5613,2.5647,2.5636,2.5672,2.5666,2.5731,2.572,2.5727,2.5724,2.5771,2.5766,2.5926,2.5946,2.5802,2.5803,2.5804,0,2.5516,2.5553,2.5562,2.5582,2.5589,2.5621,2.5639,2.5623,2.5642,2.566,2.5689,2.572,2.5743,2.5799,2.5797,2.5825,2.5813,2.5868,2.5817,2.5822,2.5814,2.5812,2.5815,2.5878,2.5879,2.5881,2.5882,0,2.5643,2.5637,2.5663,2.5689,2.5711,2.573,2.5747,2.5764,2.5749,2.5772,2.5806,2.5825,2.5862,2.5893,2.5918,2.5923,2.59,2.5898,2.591,2.5915,2.5918,2.5917,2.5753,2.5894,2.5893,2.5892,2.5891,2.5891,2.5736,2.5767,2.5779,2.5809,2.582,2.5836,2.5865,2.5864,2.5892,2.5921,2.5909,2.5948,2.5961,2.5992,2.6001,2.6031,2.601,2.6028,2.6033,2.6037,2.6043,2.5913,2.6036,2.6035,2.6035,2.6035,2.6035,0,2.5861,2.5866,2.5895,2.5919,2.5943,2.5919,2.5937,2.5959,2.5993,2.6007,2.6031,2.6069,2.61,2.6101,2.6129,2.6153,2.6143,2.6161,2.6158,2.616,2.606,2.6047,2.6168,2.6168,2.6168,2.6168,2.6168,2.6168,2.5928,2.598,2.5975,2.6031,2.6037,2.6074,2.6086,2.6101,2.6112,2.6156,2.6181,2.6182,2.619,2.6219,2.6245,2.6245,2.6256,2.6278,2.6274,2.618,2.6167,2.6154,2.6142,2.6281,2.6281,2.6371,2.6372,2.6373]}]]